#timestamp,LO_Frequency,Hit,StdDev 
1630627215.7,286046997.6,N
1630627235.5,286046999.5,N
1630627255.4,286046999.6,N
1630627275.2,286046998.0,N
1630627295.0,286046994.9,N
1630627295.9,286046994.9,N
1630627315.8,286046997.3,N
1630627335.6,286046997.1,N
1630627355.5,286046997.3,N
1630627375.3,286046996.7,N
1630627395.1,286046999.2,N
1630627415.9,286046997.8,N
1630627435.7,286046996.3,N
1630627455.5,286046997.6,N
1630627475.4,286046999.0,N
1630627495.2,286046999.6,N
1630627515.0,286046997.1,N
1630627516.0,286046997.1,N
1630627535.8,286046995.8,N
1630627555.6,286046994.9,N
1630627575.5,286046997.6,N
1630627595.3,286046994.9,N
1630627615.1,286046996.4,N
1630627635.9,286046996.2,N
1630627655.7,286046997.6,N
1630627675.5,286046995.1,N
1630627695.4,286046995.0,N
1630627715.2,286046997.7,N
1630627735.1,286046997.8,N
1630627736.0,286046997.8,N
1630627755.8,286046995.6,Y
1630627775.6,286046997.4,P
1630627795.5,286046997.5,P
1630627815.3,286046997.2,P
1630627835.2,286046996.6,Y
1630627855.9,286046998.2,P
1630627875.7,286046998.7,N
1630627895.6,286046997.1,P
1630627915.4,286046997.7,Y
1630627935.2,286047000.5,P
1630627955.1,286046999.8,N
1630627956.0,286046999.8,N
1630627975.8,286047001.4,N
1630627995.7,286047003.8,Y
1630628015.5,286047001.7,P
1630628035.3,286047003.8,P
1630628055.2,286047002.3,N
1630628075.0,286047002.1,N
1630628075.9,286047002.1,N
1630628095.8,286047001.5,N
1630628115.6,286047002.1,N
1630628135.4,286047000.0,N
1630628155.3,286047004.4,Y
1630628175.1,286047000.6,P
1630628195.9,286046999.9,N
1630628215.7,286047002.1,N
1630628235.5,286047000.5,N
1630628255.4,286047001.2,N
1630628275.2,286047001.2,N
1630628295.0,286046998.8,N
1630628295.9,286046998.8,N
1630628315.8,286046998.6,N
1630628335.6,286047000.5,N
1630628355.5,286046998.7,N
1630628375.3,286046998.2,N
1630628395.1,286047001.0,N
1630628415.9,286046999.8,N
1630628435.7,286047000.3,N
1630628455.5,286047000.8,N
1630628475.4,286046998.5,N
1630628495.2,286046998.6,N
1630628515.1,286046999.2,N
1630628516.0,286046999.2,N
1630628535.8,286047001.2,N
1630628555.6,286046998.6,N
1630628575.5,286046999.0,N
1630628595.3,286047000.9,N
1630628615.1,286047002.7,N
1630628635.9,286047003.9,Y
1630628655.7,286047004.0,P
1630628675.6,286047004.2,N
1630628695.4,286047004.4,N
1630628715.2,286047004.3,N
1630628735.1,286047001.8,N
1630628736.0,286047001.8,N
1630628755.8,286047002.3,N
1630628775.7,286047000.6,N
1630628795.5,286047002.4,N
1630628815.3,286047004.4,N
1630628835.2,286047003.5,N
1630628855.9,286047005.6,Y
1630628875.7,286047000.7,P
1630628895.6,286047000.0,N
1630628915.4,286047002.3,N
1630628935.3,286047001.1,N
1630628955.1,286047000.0,N
1630628956.0,286047000.0,N
1630628975.8,286047002.2,N
1630628995.7,286047000.7,N
1630629015.5,286046998.4,N
1630629035.3,286046998.8,N
1630629055.2,286046996.6,N
1630629075.0,286046998.3,N
1630629075.9,286046998.3,N
1630629095.8,286046996.6,N
1630629115.6,286046996.6,N
1630629135.4,286046998.1,N
1630629155.3,286046998.3,N
1630629175.1,286046999.3,N
1630629195.8,286046999.6,N
1630629215.7,286046997.1,N
1630629235.5,286046997.3,N
1630629255.4,286046995.3,N
1630629275.2,286046995.2,N
1630629295.0,286046995.6,N
1630629295.9,286046995.6,N
1630629315.8,286046997.7,N
1630629335.6,286046996.5,N
1630629355.4,286047000.6,N
1630629375.3,286046999.0,N
1630629395.1,286046998.6,N
1630629415.9,286046998.4,N
1630629435.7,286046999.0,N
1630629455.5,286046996.5,N
1630629475.4,286046999.5,N
1630629495.2,286046996.9,N
1630629515.0,286046996.7,N
1630629515.9,286046996.7,N
1630629535.8,286046998.0,N
1630629555.6,286046996.1,N
1630629575.5,286046995.2,Y
1630629595.3,286046996.6,P
1630629615.1,286046998.2,P
1630629635.9,286046998.6,N
1630629655.7,286046996.6,Y
1630629675.6,286047000.3,P
1630629695.4,286046998.6,N
1630629715.2,286046998.6,N
1630629735.1,286046996.5,Y
1630629736.0,286046996.5,P
1630629755.8,286046998.8,N
1630629775.7,286046998.1,N
1630629795.5,286046998.3,N
1630629815.3,286046998.5,N
1630629835.2,286047002.4,Y
1630629855.0,286047004.4,P
1630629855.9,286047004.4,N
1630629875.8,286047002.8,N
1630629895.6,286047002.1,N
1630629915.4,286047003.5,N
1630629935.3,286047004.0,N
1630629955.1,286047001.5,N
1630629975.8,286047001.3,N
1630629995.7,286047003.9,N
1630630015.5,286047003.1,N
1630630035.3,286047003.7,N
1630630055.2,286047004.1,N
1630630075.0,286047001.8,N
1630630075.9,286047001.8,N
1630630095.8,286047001.7,N
1630630115.6,286047001.6,N
1630630135.4,286047004.2,N
1630630155.3,286047003.3,N
1630630175.1,286047003.3,N
1630630195.9,286047004.2,N
1630630215.7,286047005.9,Y
1630630235.5,286047000.5,P
1630630255.4,286047001.5,N
1630630275.2,286047001.9,N
1630630295.0,286047002.4,N
1630630295.9,286047002.4,N
1630630315.8,286047004.0,Y
1630630335.6,286047001.8,P
1630630355.5,286047002.5,P
1630630375.3,286047001.4,P
1630630395.1,286047002.0,Y
1630630415.9,286047000.5,P
1630630435.7,286046999.9,N
1630630455.5,286047000.7,N
1630630475.4,286047001.0,N
1630630495.2,286046999.9,N
1630630515.1,286047001.1,N
1630630516.0,286047001.1,N
1630630535.8,286046999.0,N
1630630555.6,286046996.5,Y
1630630575.5,286046997.0,P
1630630595.3,286046996.7,N
1630630615.2,286046997.2,N
1630630635.9,286046997.5,N
1630630655.7,286046995.4,Y
1630630675.6,286046996.6,P
1630630695.4,286046998.3,N
1630630715.2,286046998.4,N
1630630735.1,286046998.4,N
1630630736.0,286046998.4,N
1630630755.8,286046998.2,N
1630630775.7,286046998.2,N
1630630795.5,286046998.2,Y
